When you browse on this site, cookies collect data to enhance your experience and personalize the content and advertising you see.
Visit our Privacy Policy to learn more. By continuing to use the site, you agree to this use of cookies and data.
  • en Suisse
  • Liste des pays
  • À 7 jours
  • Température de l'eau
  • Carte météo
  • Widgets météo
  • user-avatar
    Se connecter

    Météo par heure à Hobart

    Ce jour, 30 Mai, Samedi

    Heure Température Précipitation Vent Pression Humidité
    00:00 +8°C° 0 mm 3 m/s 751 mmHg 82%
    01:00 +8°C° 0 mm 3 m/s 750 mmHg 82%
    02:00 +8°C° 0 mm 3 m/s 750 mmHg 83%
    03:00 +8°C° 0 mm 3 m/s 750 mmHg 84%
    04:00 +7°C° 0 mm 3 m/s 750 mmHg 84%
    05:00 +7°C° 0 mm 3 m/s 750 mmHg 86%
    06:00 +7°C° 0 mm 3 m/s 749 mmHg 88%
    07:00 +7°C° 0 mm 3 m/s 749 mmHg 90%
    08:00 +8°C° 0 mm 3 m/s 749 mmHg 82%
    09:00 +10°C° 0 mm 3 m/s 749 mmHg 73%
    10:00 +12°C° 0 mm 4 m/s 749 mmHg 62%
    11:00 +13°C° 0 mm 4 m/s 748 mmHg 58%
    12:00 +14°C° 0 mm 5 m/s 748 mmHg 55%
    13:00 +15°C° 0 mm 5 m/s 747 mmHg 51%
    14:00 +14°C° 0 mm 5 m/s 746 mmHg 55%
    15:00 +14°C° 0 mm 5 m/s 745 mmHg 59%
    16:00 +13°C° 0 mm 4 m/s 745 mmHg 63%
    17:00 +12°C° 0 mm 5 m/s 744 mmHg 66%
    18:00 +10°C° 0 mm 5 m/s 743 mmHg 70%
    19:00 +9°C° 0 mm 6 m/s 742 mmHg 74%
    20:00 +9°C° 0 mm 5 m/s 742 mmHg 72%
    21:00 +8°C° 0 mm 5 m/s 742 mmHg 71%
    22:00 +8°C° 0 mm 5 m/s 741 mmHg 67%
    23:00 +8°C° 0 mm 5 m/s 741 mmHg 67%

    Demain, 31 Mai, Dimanche

    Heure Température Précipitation Vent Pression Humidité
    00:00 +10°C° 0 mm 4 m/s 740 mmHg 67%
    01:00 +10°C° 0 mm 4 m/s 739 mmHg 67%
    02:00 +10°C° 0 mm 3 m/s 739 mmHg 73%
    03:00 +9°C° 0 mm 2 m/s 739 mmHg 78%
    04:00 +10°C° 0 mm 1 m/s 738 mmHg 83%
    05:00 +9°C° 0.1 mm 1 m/s 739 mmHg 86%
    06:00 +9°C° 0.1 mm 1 m/s 739 mmHg 88%
    07:00 +8°C° 0.1 mm 1 m/s 740 mmHg 90%
    08:00 +9°C° 0 mm 2 m/s 740 mmHg 83%
    09:00 +10°C° 0 mm 3 m/s 740 mmHg 77%
    10:00 +11°C° 0 mm 3 m/s 741 mmHg 70%
    11:00 +12°C° 0 mm 3 m/s 740 mmHg 65%
    12:00 +12°C° 0 mm 3 m/s 740 mmHg 60%
    13:00 +13°C° 0 mm 3 m/s 740 mmHg 54%
    14:00 +13°C° 0 mm 3 m/s 740 mmHg 56%
    15:00 +13°C° 0 mm 2 m/s 739 mmHg 58%
    16:00 +13°C° 0 mm 2 m/s 739 mmHg 60%
    17:00 +10°C° 0 mm 2 m/s 739 mmHg 65%
    18:00 +9°C° 0 mm 2 m/s 739 mmHg 71%
    19:00 +7°C° 0 mm 2 m/s 739 mmHg 77%
    20:00 +7°C° 0 mm 2 m/s 739 mmHg 78%
    21:00 +7°C° 0 mm 2 m/s 739 mmHg 79%
    22:00 +7°C° 0 mm 3 m/s 739 mmHg 79%
    23:00 +7°C° 0 mm 2 m/s 738 mmHg 78%

    Après-demain, 1 Juin, Lundi

    Heure Température Précipitation Vent Pression Humidité
    00:00 +7°C° 0 mm 2 m/s 738 mmHg 77%
    01:00 +7°C° 0 mm 2 m/s 737 mmHg 76%
    02:00 +7°C° 0 mm 2 m/s 737 mmHg 76%
    03:00 +7°C° 0 mm 2 m/s 737 mmHg 76%
    04:00 +7°C° 0 mm 2 m/s 736 mmHg 76%
    05:00 +7°C° 0 mm 2 m/s 736 mmHg 80%
    06:00 +6°C° 0 mm 2 m/s 736 mmHg 84%
    07:00 +6°C° 0 mm 2 m/s 736 mmHg 87%
    08:00 +7°C° 0 mm 2 m/s 737 mmHg 81%
    09:00 +10°C° 0 mm 1 m/s 737 mmHg 75%
    10:00 +11°C° 0 mm 1 m/s 737 mmHg 69%
    11:00 +12°C° 0 mm 1 m/s 737 mmHg 65%
    12:00 +14°C° 0 mm 1 m/s 738 mmHg 60%
    13:00 +14°C° 0 mm 0 m/s 738 mmHg 56%
    14:00 +14°C° 0 mm 1 m/s 738 mmHg 63%
    15:00 +12°C° 0 mm 3 m/s 739 mmHg 71%
    16:00 +11°C° 0 mm 4 m/s 740 mmHg 79%
    17:00 +10°C° 0.2 mm 4 m/s 740 mmHg 84%
    18:00 +8°C° 0.2 mm 4 m/s 741 mmHg 88%
    19:00 +9°C° 0.2 mm 3 m/s 742 mmHg 93%
    20:00 +8°C° 0 mm 3 m/s 743 mmHg 92%
    21:00 +8°C° 0 mm 3 m/s 744 mmHg 92%
    22:00 +7°C° 0 mm 2 m/s 744 mmHg 91%
    23:00 +7°C° 0 mm 2 m/s 744 mmHg 92%

    2 Juin, Mardi

    Heure Température Précipitation Vent Pression Humidité
    00:00 +6°C° 0 mm 2 m/s 744 mmHg 93%
    01:00 +5°C° 0 mm 2 m/s 744 mmHg 94%
    02:00 +5°C° 0 mm 2 m/s 744 mmHg 92%
    03:00 +4°C° 0 mm 2 m/s 744 mmHg 90%
    04:00 +4°C° 0 mm 2 m/s 744 mmHg 89%
    05:00 +4°C° 0 mm 2 m/s 744 mmHg 88%
    06:00 +4°C° 0 mm 2 m/s 744 mmHg 88%
    07:00 +4°C° 0 mm 2 m/s 744 mmHg 88%
    08:00 +5°C° 0 mm 3 m/s 744 mmHg 85%
    09:00 +7°C° 0 mm 3 m/s 744 mmHg 81%
    10:00 +9°C° 0 mm 3 m/s 744 mmHg 77%
    11:00 +10°C° 0 mm 4 m/s 744 mmHg 73%
    12:00 +11°C° 0 mm 4 m/s 744 mmHg 69%
    13:00 +12°C° 0 mm 5 m/s 743 mmHg 65%
    14:00 +12°C° 0 mm 5 m/s 743 mmHg 68%
    15:00 +10°C° 0 mm 5 m/s 743 mmHg 71%
    16:00 +10°C° 0 mm 5 m/s 742 mmHg 73%
    17:00 +9°C° 0.1 mm 6 m/s 743 mmHg 74%
    18:00 +8°C° 0.1 mm 6 m/s 743 mmHg 75%
    19:00 +8°C° 0.1 mm 6 m/s 744 mmHg 76%
    20:00 +7°C° 0.1 mm 6 m/s 744 mmHg 77%
    21:00 +5°C° 0.1 mm 7 m/s 745 mmHg 77%
    22:00 +4°C° 0.1 mm 7 m/s 745 mmHg 77%
    23:00 +4°C° 0.1 mm 7 m/s 746 mmHg 78%

    3 Juin, Mercredi

    Heure Température Précipitation Vent Pression Humidité
    00:00 +4°C° 0.1 mm 7 m/s 747 mmHg 78%
    01:00 +3°C° 0.1 mm 7 m/s 747 mmHg 79%
    02:00 +3°C° 0.1 mm 7 m/s 748 mmHg 80%
    03:00 +3°C° 0.1 mm 7 m/s 748 mmHg 80%
    04:00 +3°C° 0.1 mm 7 m/s 749 mmHg 81%
    05:00 +3°C° 0 mm 6 m/s 750 mmHg 80%
    06:00 +3°C° 0 mm 6 m/s 751 mmHg 79%
    07:00 +3°C° 0 mm 6 m/s 752 mmHg 78%
    08:00 +4°C° 0 mm 6 m/s 752 mmHg 74%
    09:00 +5°C° 0 mm 6 m/s 753 mmHg 69%
    10:00 +5°C° 0 mm 7 m/s 753 mmHg 65%
    11:00 +7°C° 0 mm 6 m/s 754 mmHg 62%
    12:00 +7°C° 0 mm 6 m/s 754 mmHg 60%
    13:00 +8°C° 0 mm 6 m/s 754 mmHg 58%
    14:00 +7°C° 0 mm 5 m/s 755 mmHg 60%
    15:00 +7°C° 0 mm 5 m/s 755 mmHg 62%
    16:00 +6°C° 0 mm 4 m/s 755 mmHg 64%
    17:00 +5°C° 0 mm 4 m/s 756 mmHg 70%
    18:00 +4°C° 0 mm 3 m/s 756 mmHg 76%
    19:00 +3°C° 0 mm 3 m/s 757 mmHg 82%
    20:00 +3°C° 0 mm 3 m/s 757 mmHg 84%
    21:00 +4°C° 0 mm 2 m/s 758 mmHg 87%
    22:00 +3°C° 0 mm 2 m/s 758 mmHg 89%
    23:00 +3°C° 0 mm 2 m/s 758 mmHg 90%

    4 Juin, Jeudi

    Heure Température Précipitation Vent Pression Humidité
    00:00 +3°C° 0 mm 2 m/s 758 mmHg 91%
    01:00 +3°C° 0 mm 2 m/s 758 mmHg 92%
    02:00 +3°C° 0 mm 2 m/s 758 mmHg 92%
    03:00 +2°C° 0 mm 2 m/s 758 mmHg 92%
    04:00 +2°C° 0 mm 2 m/s 758 mmHg 93%
    05:00 +2°C° 0 mm 2 m/s 758 mmHg 92%
    06:00 +2°C° 0 mm 2 m/s 758 mmHg 92%
    07:00 +2°C° 0 mm 2 m/s 758 mmHg 92%
    08:00 +3°C° 0 mm 2 m/s 758 mmHg 85%
    09:00 +5°C° 0 mm 2 m/s 758 mmHg 78%
    10:00 +6°C° 0 mm 2 m/s 759 mmHg 71%
    11:00 +8°C° 0 mm 2 m/s 758 mmHg 65%
    12:00 +9°C° 0 mm 2 m/s 758 mmHg 60%
    13:00 +12°C° 0 mm 1 m/s 757 mmHg 54%
    14:00 +11°C° 0 mm 1 m/s 757 mmHg 57%
    15:00 +11°C° 0 mm 1 m/s 757 mmHg 61%
    16:00 +10°C° 0 mm 1 m/s 756 mmHg 64%
    17:00 +9°C° 0 mm 1 m/s 756 mmHg 69%
    18:00 +8°C° 0 mm 1 m/s 756 mmHg 75%
    19:00 +6°C° 0 mm 2 m/s 757 mmHg 81%
    20:00 +6°C° 0 mm 2 m/s 756 mmHg 81%
    21:00 +6°C° 0 mm 2 m/s 756 mmHg 82%
    22:00 +6°C° 0 mm 2 m/s 756 mmHg 83%
    23:00 +6°C° 0 mm 2 m/s 756 mmHg 83%
    Voir plus